Location: Monfort
(47.1967°N, 0.2115°W)
Time: 12:13:59
(UTC+00:00)

Cosmos 1331 Rocket - Pass Details

Date: 24 October 2020
Orbit: 749 x 778 km, 74.0° (Epoch: 27 November)

Event Time Altitude Azimuth Distance (km) Brightness Sun altitude
Rises 17:51:53 0° 189° (S) 3,191 7.4 -10.0°
Reaches altitude 10° 17:54:16 10° 186° (S) 2,269 6.6 -10.4°
Maximum altitude 17:59:18 60° 107° (ESE) 860 4.0 -11.3°
Drops below altitude 10° 18:04:22 10° 29° (NNE) 2,280 6.1 -12.1°
Sets 18:06:46 0° 26° (NNE) 3,209 6.9 -12.5°
